User: anonymous   Login
Location: Marseilles
(40.7010°N, 83.3930°W)
Time: 19:32:39
(UTC-04:00)
Language:

Cosmos 1459 Rocket - Orbit

View from above orbital plane
View from above orbital plane
View from above satellite
View from above satellite

Ground track
Ground track

The orbit data is extracted from the following two-line orbital elements,

1 14059U 83042B   15241.05634510  .00000079  00000-0  62591-4 0  9996
2 14059 082.9735 190.3860 0041673 316.9210 118.2841 13.78520140625082
Epoch (UTC): 29 August 2015 01:21:08
Eccentricity: 0.0041673
inclination: 82.9735°
perigee height: 938 km
apogee height: 1000 km
right ascension of ascending node: 190.3860°
argument of perigee: 316.9210°
revolutions per day: 13.78520140
mean anomaly at epoch: 118.2841°
orbit number at epoch: 62508

The dashed part of the orbit path shows where the satellite is in the earth's shadow,  

DLR